Vorticity
18 19 20 9 10 13 18 19 15 7 25 -12 26 -6 -5 -5 -10 -21 -16 -19 -18 4 13 21 18 8 14 14 10 7 15 3 5 4 4 6 5 7 7 6 12 21 14 -0
11 11 23 15 29 30 32 32 22 24 40 -1 33 32 -20 -12 -13 2 10 3 0 22 22 10 8 10 20 17 17 14 14 9 6 7 5 5 6 7 6 16 21 18 -1 6
8 64 -5 26 6 12 14 12 18 24 35 27 29 32 46 32 42 36 3 13 18 20 15 10 13 12 16 14 12 14 15 13 13 11 10 11 2 7 13 23 14 1 0 2
21 -10 18 10 -2 3 7 7 12 8 11 19 6 8 10 12 10 6 6 17 11 18 1 28 18 19 6 11 11 10 10 10 8 9 10 10 9 13 19 9 -2 11 4 5
14 14 4 25 12 16 19 15 7 -5 10 -4 20 3 18 13 23 27 25 20 11 10 21 19 18 19 14 17 17 16 15 14 13 13 11 14 21 14 4 11 7 -0 6 10
16 11 19 21 13 14 5 8 12 12 5 31 -11 8 7 9 11 12 7 1 2 5 16 14 7 12 9 8 10 14 16 15 17 24 11 11 9 3 18 -4 13 1 13 12
58 10 14 18 14 8 4 12 -0 15 24 -11 13 12 9 6 7 -2 1 43 18 11 16 10 11 8 14 13 12 6 4 6 9 8 5 8 12 4 10 14 7 14 12 13
-12 -7 14 2 7 3 -8 45 31 -48 -6 19 15 -2 17 9 16 16 -17 20 31 22 17 13 9 10 -2 15 18 13 13 12 13 12 14 9 11 11 -2 13 11 13 11 10
9 15 5 12 0 3 6 1 11 29 -5 24 7 3 -1 29 15 13 31 8 9 10 14 10 5 3 8 14 16 15 14 15 21 23 24 26 26 30 22 12 12 11 11 12
13 11 14 19 10 8 16 13 9 18 7 27 4 17 38 30 31 14 28 7 8 6 13 8 3 16 10 11 18 18 19 12 7 8 12 14 16 17 17 18 14 13 12 10
53 24 12 6 10 -0 1 3 15 20 10 16 23 18 -2 10 24 32 9 14 6 8 -6 5 7 7 8 3 2 7 12 15 28 5 10 16 17 16 13 13 13 11 10 11
13 6 6 3 -1 3 -1 2 8 33 14 24 6 23 12 17 15 16 21 18 6 9 4 7 6 8 7 12 15 11 14 11 16 35 13 12 13 12 10 11 12 11 11 10
4 5 5 4 1 -1 -0 -4 13 28 14 17 3 23 15 13 20 25 42 -2 6 6 8 5 5 4 -1 9 14 14 16 9 14 16 23 7 14 12 11 10 11 11 10 10
6 1 1 1 5 7 4 14 26 24 10 15 5 9 23 9 15 18 41 6 11 1 9 8 5 3 -0 7 11 9 12 16 14 15 8 12 11 11 12 10 11 11 11 11
1 -0 2 18 25 23 21 25 19 17 9 15 8 7 4 13 -7 34 19 -3 16 9 16 8 3 1 -2 1 9 2 3 6 13 21 19 10 10 9 10 12 13 14 13 11
7 12 18 30 28 23 33 30 14 20 8 15 14 13 9 14 6 10 21 19 -28 5 10 7 3 -1 7 10 12 8 1 3 6 12 23 12 13 14 13 13 14 11 9 4
19 26 23 21 31 37 26 24 31 14 4 19 11 13 17 10 6 5 5 -2 3 4 4 5 6 10 11 13 15 6 5 2 6 8 15 16 11 13 13 12 10 8 3 6
36 14 1 16 14 10 14 9 5 12 22 17 12 15 9 9 6 6 8 10 10 9 13 21 28 26 21 8 2 4 -3 11 6 6 14 16 12 14 13 10 9 3 11 10
11 5 14 12 9 14 8 10 13 11 10 17 15 14 16 15 14 12 12 8 8 12 -7 -4 1 8 2 3 6 7 9 7 7 14 17 14 14 10 8 9 8 11 9 8
27 18 24 8 19 18 13 11 17 17 12 12 12 8 4 8 10 7 9 18 26 10 -12 1 27 6 2 11 4 9 6 11 19 18 16 9 9 13 11 10 9 9 9 8
14 22 6 5 7 10 10 13 14 10 6 7 8 9 10 11 13 19 15 12 -1 9 15 14 6 6 11 6 11 8 10 23 22 13 9 10 6 11 11 9 9 7 7 8
5 7 9 6 18 17 12 13 13 12 12 11 8 7 9 10 9 11 16 16 14 14 12 13 17 16 21 24 17 22 28 18 7 8 5 9 12 10 9 7 7 8 8 8
4 4 6 4 13 7 8 11 12 12 12 11 11 11 10 9 10 10 10 10 11 14 18 25 23 15 14 23 31 18 5 6 5 8 12 10 9 7 7 8 9 9 11 11
18 14 11 9 9 10 -1 -1 5 11 11 12 13 14 15 15 14 14 13 11 12 16 17 16 19 20 20 13 2 4 6 12 12 10 8 7 8 9 10 11 11 10 9 9
13 21 18 14 14 14 12 8 5 7 12 11 11 13 13 13 12 13 15 13 16 16 14 12 11 11 9 6 10 11 11 10 8 8 9 10 11 11 10 10 9 10 10 11
8 2 12 21 16 14 16 13 10 10 13 13 14 14 13 13 13 13 13 13 12 13 13 11 10 9 9 10 10 10 8 8 9 9 8 8 9 9 10 10 10 11 11 12
4 1 7 6 16 17 17 15 13 12 12 13 18 11 9 12 17 17 15 14 13 12 12 12 11 11 11 11 10 8 8 8 7 7 7 7 8 9 10 11 12 13 14 14
Height
5555 5558 5558 5558 5559 5560 5559 5557 5553 5559 5558 5572 5572 5572 5566 5567 5567 5568 5571 5569 5574 5575 5577 5578 5578 5579 5580 5578 5577 5579 5580 5580 5580 5580 5581 5582 5583 5583 5582 5582 5580 5579 5579 5578
5543 5548 5545 5544 5547 5545 5545 5545 5543 5543 5545 5558 5555 5551 5553 5555 5557 5557 5564 5562 5564 5564 5566 5566 5564 5565 5568 5565 5565 5568 5569 5570 5570 5571 5571 5573 5573 5573 5573 5573 5571 5571 5571 5571
5532 5531 5534 5534 5540 5537 5536 5536 5535 5535 5539 5539 5541 5542 5539 5542 5546 5551 5553 5552 5551 5551 5554 5553 5552 5553 5556 5556 5555 5558 5558 5559 5560 5561 5562 5564 5564 5564 5564 5564 5564 5564 5564 5563
5523 5525 5524 5529 5528 5529 5529 5531 5529 5529 5531 5532 5532 5531 5533 5534 5536 5538 5539 5542 5540 5540 5543 5543 5542 5543 5545 5544 5546 5548 5549 5548 5550 5552 5552 5553 5554 5555 5555 5556 5556 5557 5556 5554
5514 5516 5518 5520 5521 5520 5519 5524 5522 5524 5524 5525 5527 5528 5527 5527 5527 5527 5526 5529 5528 5529 5533 5532 5533 5534 5534 5535 5537 5537 5538 5538 5540 5541 5541 5543 5544 5546 5547 5548 5548 5549 5547 5546
5506 5507 5506 5508 5512 5513 5513 5515 5516 5515 5515 5518 5520 5522 5520 5519 5518 5516 5517 5518 5519 5522 5524 5525 5525 5526 5528 5529 5529 5530 5531 5531 5531 5532 5533 5535 5537 5537 5538 5539 5540 5541 5539 5536
5494 5499 5501 5504 5507 5507 5509 5512 5509 5507 5507 5510 5511 5511 5511 5510 5510 5509 5509 5505 5507 5513 5516 5517 5518 5521 5522 5522 5523 5523 5524 5524 5525 5525 5526 5527 5528 5529 5529 5530 5531 5531 5530 5528
5493 5495 5495 5496 5499 5501 5503 5500 5497 5497 5501 5500 5501 5501 5501 5500 5500 5502 5503 5501 5502 5506 5510 5512 5513 5515 5516 5515 5515 5515 5516 5516 5516 5517 5516 5517 5518 5519 5520 5521 5520 5521 5521 5520
5490 5491 5492 5492 5493 5494 5494 5495 5492 5493 5493 5493 5494 5492 5491 5490 5490 5493 5495 5497 5498 5500 5504 5506 5508 5510 5509 5509 5508 5508 5508 5508 5507 5507 5506 5507 5507 5508 5509 5510 5510 5511 5512 5512
5484 5485 5485 5486 5487 5488 5488 5486 5484 5484 5483 5483 5484 5483 5482 5482 5483 5485 5488 5492 5494 5496 5499 5500 5502 5503 5504 5504 5503 5502 5501 5501 5499 5499 5499 5498 5499 5499 5499 5500 5501 5502 5503 5503
5478 5478 5478 5481 5483 5483 5482 5481 5480 5478 5477 5476 5476 5475 5476 5477 5475 5476 5482 5486 5490 5491 5494 5495 5497 5499 5499 5499 5498 5496 5494 5492 5491 5491 5491 5490 5491 5492 5490 5492 5493 5493 5494 5496
5474 5475 5477 5478 5478 5478 5476 5474 5472 5470 5468 5469 5470 5470 5471 5470 5469 5471 5475 5480 5483 5487 5489 5490 5491 5493 5494 5493 5491 5490 5488 5486 5484 5483 5483 5484 5484 5485 5484 5484 5486 5486 5487 5488
5471 5471 5473 5473 5472 5470 5468 5468 5465 5463 5462 5464 5464 5464 5464 5464 5465 5467 5469 5474 5478 5481 5483 5485 5486 5487 5489 5488 5486 5484 5483 5481 5479 5478 5477 5478 5478 5478 5478 5478 5479 5479 5479 5480
5467 5466 5466 5465 5463 5461 5459 5457 5456 5456 5456 5458 5459 5459 5460 5460 5462 5463 5465 5469 5473 5476 5478 5480 5481 5482 5483 5482 5481 5479 5477 5476 5474 5473 5472 5472 5471 5471 5471 5471 5472 5473 5472 5471
5463 5461 5458 5455 5452 5449 5447 5446 5447 5448 5450 5452 5454 5455 5455 5456 5458 5459 5463 5466 5468 5469 5472 5475 5476 5477 5477 5477 5476 5474 5473 5471 5469 5467 5467 5466 5465 5464 5464 5464 5464 5464 5464 5464
5457 5453 5448 5443 5441 5438 5437 5438 5440 5442 5445 5447 5449 5450 5452 5453 5455 5458 5460 5462 5462 5465 5467 5468 5470 5471 5471 5470 5469 5468 5467 5466 5464 5462 5460 5460 5459 5459 5457 5456 5457 5457 5457 5457
5446 5443 5440 5438 5435 5432 5432 5432 5435 5438 5440 5441 5443 5445 5446 5449 5450 5453 5455 5456 5458 5460 5461 5461 5462 5462 5462 5461 5461 5461 5460 5459 5458 5456 5454 5453 5453 5452 5452 5451 5450 5449 5449 5448
5439 5437 5436 5435 5433 5432 5431 5431 5432 5434 5435 5437 5438 5439 5440 5443 5446 5447 5449 5451 5452 5453 5454 5454 5454 5454 5454 5454 5454 5453 5453 5452 5450 5449 5447 5446 5445 5445 5445 5444 5444 5443 5441 5438
5437 5435 5434 5433 5432 5431 5430 5430 5430 5431 5432 5433 5434 5435 5437 5438 5440 5442 5443 5444 5445 5446 5447 5447 5448 5448 5448 5447 5446 5446 5444 5443 5442 5440 5439 5438 5438 5437 5437 5437 5436 5435 5433 5431
5433 5432 5430 5429 5428 5427 5427 5427 5427 5427 5428 5429 5430 5431 5432 5434 5434 5435 5435 5436 5437 5439 5439 5440 5440 5440 5439 5439 5438 5437 5436 5435 5433 5431 5431 5431 5431 5430 5429 5427 5426 5425 5423 5421
5431 5430 5429 5428 5426 5425 5425 5425 5424 5425 5425 5426 5426 5427 5427 5428 5428 5428 5429 5430 5430 5431 5431 5431 5431 5430 5430 5429 5428 5428 5428 5426 5425 5425 5424 5424 5423 5422 5421 5419 5417 5415 5412 5409
5427 5426 5425 5424 5423 5422 5422 5421 5421 5421 5421 5421 5421 5422 5422 5422 5422 5422 5422 5423 5423 5423 5422 5421 5421 5420 5420 5419 5419 5419 5418 5418 5418 5418 5418 5416 5415 5414 5412 5410 5408 5405 5401 5398
5422 5421 5421 5420 5420 5419 5418 5418 5417 5417 5416 5416 5416 5416 5416 5416 5415 5415 5415 5415 5414 5414 5413 5412 5411 5411 5411 5411 5412 5412 5412 5412 5411 5411 5410 5408 5407 5405 5402 5400 5397 5393 5390 5386
5416 5415 5415 5414 5414 5414 5414 5413 5413 5412 5411 5410 5410 5409 5409 5408 5408 5408 5408 5408 5407 5407 5406 5405 5405 5405 5405 5405 5406 5406 5406 5405 5404 5403 5402 5400 5398 5395 5393 5389 5386 5383 5379 5374
5411 5409 5408 5407 5407 5406 5406 5406 5406 5406 5405 5404 5404 5403 5402 5402 5402 5401 5401 5401 5401 5401 5400 5400 5400 5399 5400 5400 5400 5399 5399 5398 5397 5395 5393 5391 5389 5386 5382 5379 5375 5371 5366 5361
5406 5404 5403 5401 5400 5399 5398 5399 5398 5398 5398 5398 5397 5397 5396 5396 5396 5395 5395 5395 5395 5395 5395 5395 5395 5395 5394 5394 5394 5393 5392 5391 5390 5388 5385 5383 5380 5376 5372 5368 5363 5358 5353 5348
5398 5398 5397 5395 5393 5392 5392 5391 5391 5391 5391 5391 5391 5391 5391 5390 5390 5389 5389 5390 5390 5390 5390 5390 5389 5389 5388 5388 5387 5386 5385 5384 5381 5379 5376 5373 5369 5365 5361 5356 5350 5345 5340 5335